Orlando, FL

7:23 PM EDT on August 24, 2016 (GMT -0400)
Orlando International

Weather History for KMCO - February, 2013

Change the Weather History Date:

Wednesday, February 20, 2013

  Actual Average Record
Temperature  
Mean Temperature 68 °F 64 °F  
Max Temperature 79 °F 75 °F 89 °F (1988)
Min Temperature 57 °F 53 °F 33 °F (1958)
Degree Days  
Heating Degree Days 0 4  
Month to date heating degree days 86 91  
Since 1 July heating degree days 308 475  
Cooling Degree Days 3 2  
Month to date cooling degree days 48 40  
Year to date cooling degree days 149 85  
Growing Degree Days 18 (Base 50)    
Moisture  
Dew Point 56 °F    
Average Humidity 76    
Maximum Humidity 100    
Minimum Humidity 52    
Precipitation  
Precipitation 0.00 in 0.08 in 1.85 in (1902)
Month to date precipitation 0.50 1.67  
Year to date precipitation 0.74 4.02  
Sea Level Pressure  
Sea Level Pressure 30.10 in    
Wind  
Wind Speed 6 mph (NNE)    
Max Wind Speed 14 mph    
Max Gust Speed -    
Visibility 10 miles    
Events      
T = Trace of Precipitation, MM = Missing Value Source: NWS Daily Summary

Daily Weather History Graph

Daily Weather History Graph

Search for Another Location

Airport or City:

Trip Planner

Search our weather history database for the weather conditions in past years. The results will help you decide how hot, cold, wet, or windy it might be!

Date:

Astronomy

Feb. 20, 2013 Rise Set
Actual Time 6:58 AM EST 6:19 PM EST
Civil Twilight 6:34 AM EST 6:43 PM EST
Nautical Twilight 6:07 AM EST 7:10 PM EST
Astronomical Twilight 5:39 AM EST 7:38 PM EST
Moon 1:53 PM EST (2/20) 3:03 AM EST (2/20)
Length of Visible Light 12h 08m
Length of Day
11h 20m
Waxing Gibbous, 76% of the Moon is Illuminated
Feb 20
Waxing Gibbous
Feb 25
Full
Mar 4
Last Quarter
Mar 11
New
Mar 19
First Quarter

Hourly Weather History & Observations

Time (EST) Temp. Dew Point Humidity Pressure Visibility Wind Dir Wind Speed Gust Speed Precip Events Conditions
12:53 AM 61.0 °F 55.9 °F 83% 30.10 in 10.0 mi West 4.6 mph - N/A   Clear
1:53 AM 59.0 °F 55.9 °F 90% 30.10 in 10.0 mi SW 3.5 mph - N/A   Clear
2:53 AM 59.0 °F 57.0 °F 93% 30.09 in 10.0 mi SW 4.6 mph - N/A   Partly Cloudy
3:41 AM 57.2 °F 57.2 °F 100% 30.10 in 10.0 mi Calm Calm - N/A   Mostly Cloudy
3:53 AM 57.9 °F 57.0 °F 97% 30.10 in 10.0 mi Calm Calm - N/A   Mostly Cloudy
4:53 AM 59.0 °F 57.9 °F 96% 30.09 in 10.0 mi Calm Calm - N/A   Mostly Cloudy
5:09 AM 59.0 °F 57.2 °F 94% 30.10 in 10.0 mi Calm Calm - N/A   Mostly Cloudy
5:45 AM 59.0 °F 57.2 °F 94% 30.11 in 10.0 mi Calm Calm - N/A   Mostly Cloudy
5:53 AM 60.1 °F 57.9 °F 93% 30.11 in 10.0 mi Calm Calm - N/A   Mostly Cloudy
6:53 AM 62.1 °F 60.1 °F 93% 30.12 in 10.0 mi North 5.8 mph - N/A   Overcast
7:30 AM 62.6 °F 59.0 °F 88% 30.13 in 10.0 mi NNE 11.5 mph - N/A   Mostly Cloudy
7:53 AM 62.1 °F 57.9 °F 86% 30.13 in 10.0 mi NNE 10.4 mph - N/A   Mostly Cloudy
8:49 AM 66.2 °F 53.6 °F 64% 30.15 in 10.0 mi North 11.5 mph - N/A   Mostly Cloudy
8:53 AM 66.9 °F 54.0 °F 63% 30.14 in 10.0 mi North 11.5 mph - N/A   Mostly Cloudy
9:53 AM 66.0 °F 53.1 °F 63% 30.15 in 10.0 mi NNE 8.1 mph - N/A   Mostly Cloudy
10:43 AM 66.2 °F 53.6 °F 64% 30.15 in 10.0 mi North 6.9 mph - N/A   Mostly Cloudy
10:53 AM 68.0 °F 55.0 °F 63% 30.15 in 10.0 mi North 5.8 mph - N/A   Mostly Cloudy
11:38 AM 69.8 °F 55.4 °F 60% 30.13 in 10.0 mi ENE 6.9 mph - N/A   Mostly Cloudy
11:53 AM 71.1 °F 55.9 °F 59% 30.12 in 10.0 mi Variable 4.6 mph - N/A   Scattered Clouds
12:53 PM 73.9 °F 57.9 °F 57% 30.08 in 10.0 mi Variable 3.5 mph - N/A   Mostly Cloudy
1:53 PM 75.0 °F 57.9 °F 55% 30.05 in 10.0 mi Calm Calm - N/A   Mostly Cloudy
2:53 PM 78.1 °F 59.0 °F 52% 30.04 in 10.0 mi Calm Calm - N/A   Mostly Cloudy
3:53 PM 73.9 °F 57.9 °F 57% 30.03 in 10.0 mi ENE 11.5 mph - N/A   Mostly Cloudy
4:53 PM 71.1 °F 55.9 °F 59% 30.06 in 10.0 mi ENE 13.8 mph - N/A   Overcast
5:53 PM 71.6 °F 55.4 °F 57% 30.06 in 10.0 mi ENE 13.8 mph - N/A   Overcast
6:53 PM 64.0 °F 54.0 °F 70% 30.08 in 10.0 mi ENE 8.1 mph - N/A   Mostly Cloudy
7:53 PM 62.1 °F 53.1 °F 72% 30.11 in 10.0 mi NE 9.2 mph - N/A   Mostly Cloudy
8:53 PM 62.1 °F 53.1 °F 72% 30.12 in 10.0 mi NNE 9.2 mph - N/A   Overcast
9:53 PM 62.1 °F 53.1 °F 72% 30.13 in 10.0 mi NNE 8.1 mph - N/A   Mostly Cloudy
10:53 PM 61.0 °F 54.0 °F 78% 30.12 in 10.0 mi NE 5.8 mph - N/A   Scattered Clouds
11:53 PM 59.0 °F 54.0 °F 83% 30.10 in 10.0 mi ESE 3.5 mph - N/A   Mostly Cloudy